Wind_Speed
65 66 66 67 68 70 71 72 73 74 75 76 77 78 79 80 81 82 83 84 84 85 85 85 86 86 87 87 88 88 88 89 88 88 88 87 86 86 85 84 83 83 82 81 80 79 78 77 76 76 75 75 74 74 74 73 73 73 73 73 73 74 74 74 73 73 72 72 71 70 69 67 65 64 63 63 65 68 71 71 69 67 65 64 62 61
67 68 69 70 71 72 74 75 76 76 78 79 80 81 82 83 84 86 86 87 87 88 88 88 88 88 88 89 89 89 89 89 89 88 88 87 87 86 85 84 83 83 82 81 80 80 79 78 78 77 76 75 75 75 75 75 75 75 75 75 75 75 75 75 75 75 74 74 73 71 70 68 66 64 64 63 64 67 72 72 70 68 67 65 64 62
70 71 72 73 74 75 76 77 78 79 80 81 83 84 84 85 86 86 87 87 87 87 87 87 86 86 86 87 87 87 87 87 86 86 86 85 85 85 84 84 83 82 81 81 80 79 79 79 78 77 77 76 75 75 75 75 75 76 76 76 76 77 77 77 77 77 77 76 75 73 71 69 67 65 65 65 65 68 73 74 72 69 67 66 65 64
72 73 74 75 76 77 78 80 81 81 82 83 84 84 84 84 84 84 84 83 83 83 82 82 82 82 82 82 82 82 82 83 83 83 82 82 82 82 82 82 81 81 80 80 79 78 78 78 78 77 77 76 76 76 75 76 76 76 76 77 77 78 78 78 79 79 78 78 77 76 74 71 69 67 67 66 67 70 74 74 73 70 69 67 66 65
74 75 76 77 78 79 81 81 82 82 83 82 82 82 81 80 80 79 79 78 78 78 78 78 77 77 78 78 78 78 78 79 79 79 79 79 79 79 79 79 79 79 78 78 78 77 77 76 76 76 76 76 76 76 76 76 76 76 77 77 78 78 79 79 79 80 80 79 79 77 76 73 71 69 69 69 71 73 76 75 74 72 70 69 68 67
76 77 78 80 80 81 82 82 81 81 80 79 78 77 76 75 75 75 74 74 74 74 74 74 74 74 74 75 75 75 76 76 76 76 77 77 77 77 77 77 77 76 76 76 76 75 75 75 75 75 75 76 76 75 75 76 76 76 77 77 78 78 79 79 80 80 80 80 80 79 77 75 73 72 71 72 74 76 78 77 76 74 72 70 69 68
79 79 80 81 81 81 80 80 78 77 75 74 73 73 72 71 71 71 71 71 71 71 71 71 72 72 72 72 73 73 73 73 74 74 74 75 75 75 75 75 75 75 75 75 74 74 74 74 74 74 74 75 75 75 75 75 75 76 77 77 78 78 78 79 79 80 80 80 80 80 79 77 75 74 74 75 76 78 79 79 78 76 73 72 70 69
80 81 80 80 79 78 77 76 74 72 71 70 70 70 69 69 69 69 70 70 70 70 70 70 71 71 71 71 71 72 72 72 72 73 73 73 74 74 74 74 74 74 74 74 74 74 73 73 73 73 73 73 74 74 74 74 75 75 76 76 77 77 78 78 79 79 80 80 80 80 80 79 78 77 76 76 77 78 78 80 79 77 74 72 71 70
80 79 79 77 75 74 73 72 71 69 69 69 69 69 69 69 70 70 70 70 70 71 71 71 71 71 72 72 72 72 72 72 73 73 73 74 74 74 74 75 75 75 75 75 74 74 74 74 73 73 73 73 73 73 74 74 74 74 75 76 76 77 77 77 78 78 78 79 80 81 81 81 80 79 79 78 78 78 78 80 79 77 74 72 71 71
77 76 75 73 72 70 69 69 69 69 69 69 70 71 71 71 71 71 71 72 72 72 72 73 73 73 73 73 73 73 74 74 74 75 75 75 75 76 76 76 76 76 76 76 76 76 76 75 75 74 74 74 74 73 74 74 74 74 75 75 76 76 77 77 77 77 78 78 79 80 81 82 82 81 81 81 80 80 80 81 80 78 74 72 71 72
74 72 71 70 69 69 69 69 70 70 71 71 72 73 73 73 73 73 74 74 74 74 74 74 75 75 75 75 75 76 76 76 76 77 77 77 77 77 78 78 78 78 78 78 78 78 78 77 77 77 76 76 75 75 75 75 75 75 75 75 75 76 76 77 77 77 77 77 78 79 80 81 82 82 82 82 82 83 83 83 82 79 75 73 73 74
70 70 69 69 69 70 70 71 72 72 73 74 74 75 76 75 75 75 76 76 76 76 76 76 77 77 77 78 78 78 78 78 78 79 79 79 79 80 80 80 80 80 80 80 80 80 80 80 79 79 79 78 78 78 77 77 76 76 76 76 76 76 76 77 77 77 77 77 77 78 79 80 81 81 82 82 83 84 85 86 85 82 79 77 76 77
69 69 69 70 71 72 72 73 74 74 75 75 76 77 78 78 77 78 78 78 79 78 78 79 79 79 80 80 80 81 81 81 81 81 81 82 82 82 82 82 82 82 82 82 82 82 82 82 82 81 81 81 81 81 80 80 79 79 78 78 77 77 77 77 77 77 77 78 78 78 78 78 79 80 81 81 82 84 85 86 86 84 82 81 80 79
70 70 71 72 73 73 74 75 75 76 77 77 78 78 79 79 80 80 80 81 81 81 81 81 82 82 82 82 83 83 84 84 84 84 84 84 84 84 84 84 84 84 84 84 84 84 84 84 84 84 83 83 83 83 83 83 82 82 81 81 80 79 79 78 78 78 78 78 78 78 78 78 78 79 79 80 81 82 83 84 85 85 84 84 83 82
71 72 73 74 74 75 75 76 77 77 78 79 79 80 80 81 82 82 82 83 83 83 83 84 84 84 85 85 86 86 87 87 87 87 87 87 87 87 87 87 87 87 87 86 86 86 86 86 86 86 86 86 86 85 85 85 85 85 84 84 83 82 82 81 80 80 79 79 79 79 78 78 78 78 79 79 79 80 80 81 82 83 84 85 85 84
73 73 74 75 76 76 77 77 78 79 80 80 81 81 82 83 84 84 85 85 86 86 86 87 87 88 88 89 89 90 91 91 91 91 91 91 91 91 91 91 91 91 90 90 89 89 89 89 89 89 89 88 88 88 88 88 87 87 87 87 86 86 85 84 83 82 81 81 80 80 80 79 79 79 79 79 79 79 79 79 80 80 82 83 84 85
74 75 75 76 77 77 78 78 79 80 81 82 83 84 85 86 86 87 88 89 89 90 90 91 91 92 92 93 93 94 94 95 95 95 94 94 94 95 95 95 94 94 94 93 93 93 93 93 92 92 92 91 91 91 91 91 90 90 90 89 89 88 88 87 86 85 85 84 83 82 82 81 81 80 80 80 80 80 80 79 79 79 80 81 82 83
75 75 76 77 78 79 80 80 82 83 84 85 85 86 87 89 90 91 91 92 93 94 95 95 95 96 96 97 97 97 98 97 97 97 97 97 97 98 98 98 97 97 97 97 97 97 97 96 96 96 95 95 95 94 94 94 93 93 92 92 91 91 90 90 89 88 88 87 86 85 84 83 83 82 82 81 81 81 81 81 80 80 80 80 80 81
76 77 78 79 80 81 82 83 84 86 87 88 89 90 91 92 92 93 94 94 95 95 96 96 96 96 96 96 97 98 99 98 97 97 97 97 97 98 99 98 98 98 98 98 98 99 99 99 99 98 98 98 98 98 98 97 97 96 96 95 94 94 93 92 92 91 90 90 89 88 87 87 86 85 84 83 83 82 82 82 82 81 81 81 80 80
78 79 80 81 82 84 85 86 87 88 89 90 91 91 92 93 93 93 93 93 93 93 93 92 92 92 92 91 92 94 95 94 93 93 94 93 94 95 96 95 95 95 96 96 97 98 98 98 99 99 99 99 99 100 100 100 100 99 99 98 98 97 96 95 95 94 93 92 92 91 90 90 89 88 87 86 85 85 84 84 83 83 82 82 82 81
80 82 83 84 85 86 88 89 89 90 90 91 91 90 90 90 90 89 89 88 87 87 87 85 85 85 85 84 84 86 87 86 86 87 88 88 88 89 91 90 90 90 91 92 92 93 93 94 95 96 96 97 98 99 99 100 100 101 101 101 100 100 99 99 98 97 96 95 95 94 93 92 92 91 90 89 88 88 87 86 85 85 84 83 83 82
83 84 85 86 87 87 88 88 89 89 89 88 87 86 86 85 83 83 82 81 80 80 79 78 78 78 77 77 78 79 80 79 80 81 81 81 81 83 84 83 83 83 84 85 86 87 87 88 89 90 91 92 93 94 96 97 98 99 100 101 101 101 101 101 101 100 99 98 98 97 96 95 94 94 93 92 91 90 90 89 88 87 86 85 84 84
84 85 86 86 87 86 86 86 86 85 84 83 81 80 79 78 76 76 75 74 73 73 72 72 72 71 71 71 72 73 74 74 74 75 75 74 75 77 77 76 76 77 78 79 79 80 80 81 82 83 84 85 87 88 90 92 93 95 96 98 99 100 101 101 102 102 101 101 100 100 99 98 97 96 96 95 94 93 92 92 91 90 89 88 87 86
84 84 84 84 84 83 82 80 79 78 77 76 75 73 73 71 70 69 69 68 68 67 67 67 66 66 67 67 67 68 69 70 70 70 71 71 71 72 72 71 71 71 73 74 74 73 74 75 76 77 77 78 80 81 83 84 86 88 90 92 94 95 97 99 100 101 101 102 102 102 101 101 100 99 99 98 97 96 95 94 94 93 92 91 90 88
81 81 80 79 78 77 75 74 73 71 70 69 68 67 66 65 65 64 64 64 64 64 64 64 63 64 65 65 65 66 68 68 68 68 68 68 68 68 68 68 67 67 69 70 69 68 68 70 71 71 71 72 73 75 75 77 78 80 82 84 86 88 91 93 95 97 99 100 101 102 102 102 102 102 101 101 100 99 98 97 96 95 94 93 92 91
77 76 74 73 72 70 69 68 67 66 65 64 63 62 62 62 62 62 63 63 63 63 63 63 63 64 64 64 64 65 67 67 67 67 67 66 66 66 67 66 65 65 66 67 66 65 64 65 66 67 66 67 68 69 69 70 71 73 74 76 78 80 83 86 88 91 93 95 97 99 101 102 102 103 103 103 102 102 101 100 99 98 97 96 95 94
72 70 69 68 66 65 64 63 62 62 61 61 61 61 61 61 61 62 63 63 63 63 63 64 64 64 64 64 64 65 66 66 67 67 66 65 64 65 65 65 64 63 64 64 64 62 61 62 63 63 63 63 64 64 64 65 65 66 68 69 70 72 75 77 80 83 85 88 91 94 96 98 100 101 102 103 103 103 103 103 102 101 100 99 98 97
67 65 64 63 62 61 60 60 60 60 60 60 61 61 61 61 62 62 63 64 64 63 64 64 64 64 64 64 64 64 65 66 67 67 66 64 63 64 64 63 62 62 62 62 61 60 59 59 60 60 60 59 59 59 60 60 60 61 61 62 63 64 66 68 71 73 76 79 83 86 89 92 95 97 99 101 102 103 104 104 104 104 103 102 101 100
62 61 60 59 58 58 58 58 58 59 59 60 61 61 62 62 62 63 64 64 64 63 64 64 64 64 64 64 64 65 65 66 67 67 65 64 63 63 63 62 61 61 61 60 59 58 57 57 57 57 56 56 56 55 55 56 56 56 56 57 57 58 59 60 62 64 67 70 73 76 80 84 87 90 93 96 99 101 102 103 104 105 105 105 104 103
57 56 56 56 56 56 57 57 58 59 59 60 61 62 62 62 63 63 64 64 64 64 64 64 64 64 64 64 64 64 65 66 67 66 64 63 63 63 62 60 60 60 59 58 57 56 55 55 54 54 54 54 53 53 53 53 53 53 53 53 53 54 54 55 56 57 59 61 63 66 70 74 78 82 86 89 93 96 98 101 103 104 105 106 106 105
53 54 54 55 55 56 57 57 58 59 60 61 61 62 62 63 63 63 64 64 64 64 64 64 64 64 64 64 63 63 65 66 66 65 63 62 62 62 61 59 59 59 58 56 55 54 54 53 52 52 52 52 52 52 51 51 51 51 51 51 51 52 52 53 53 54 54 55 57 59 61 64 68 72 76 80 84 89 92 96 99 102 104 105 106 106
52 52 53 54 55 56 57 58 59 59 60 61 62 62 63 63 63 64 64 64 64 64 64 64 64 64 64 64 63 63 64 65 65 65 63 61 61 61 60 58 57 58 57 56 54 53 52 51 51 51 50 50 51 51 51 51 52 52 52 52 52 52 53 53 54 54 54 55 55 56 57 59 61 64 67 71 75 79 84 88 92 96 99 102 104 106
51 52 53 54 55 56 57 58 59 60 61 61 62 62 63 63 64 64 64 64 64 64 64 64 64 64 64 64 63 63 63 64 64 63 62 61 60 59 58 57 56 56 55 54 53 52 51 50 49 49 49 49 50 50 51 51 52 52 53 53 53 54 55 56 56 56 56 57 56 57 57 57 58 60 61 64 67 71 75 79 84 88 93 96 100 103
51 52 53 55 56 57 58 59 59 60 61 61 62 63 63 64 64 64 65 65 65 65 64 64 64 64 64 63 63 63 63 63 63 62 61 59 58 57 56 55 54 54 53 52 51 50 49 48 47 47 47 47 48 49 50 51 51 52 53 53 54 55 57 57 58 58 59 59 59 59 59 59 59 60 60 61 63 65 68 72 76 80 84 89 93 97
52 53 54 55 56 57 58 59 60 60 61 62 63 63 64 64 64 65 65 65 65 65 65 65 64 64 63 63 62 62 62 62 61 60 59 57 56 55 54 53 52 51 50 49 48 46 45 45 45 44 44 45 46 47 48 49 50 51 52 53 54 55 57 58 59 60 60 61 61 61 62 62 62 62 62 62 62 63 65 67 69 73 77 81 85 89
52 53 54 55 56 57 58 59 60 61 61 62 63 63 64 64 65 65 65 65 65 65 65 65 65 64 63 62 61 60 60 60 59 58 57 55 54 52 51 50 49 47 46 45 43 42 41 41 41 41 41 42 43 44 45 47 48 49 50 52 53 54 56 57 58 59 60 61 62 62 63 63 63 63 63 63 64 64 64 65 67 69 71 74 78 82
52 53 54 55 56 57 58 59 60 61 62 63 63 64 64 64 65 65 65 65 65 65 65 65 64 63 62 61 60 59 58 57 56 55 54 52 51 49 47 46 44 43 41 40 39 38 37 37 37 38 39 39 41 42 43 44 45 47 48 49 50 52 53 55 56 57 58 59 60 61 62 62 63 63 64 64 64 65 65 65 66 67 68 70 73 76
52 53 54 55 56 57 58 59 60 61 62 62 63 64 64 64 65 65 65 65 65 65 64 64 63 61 60 59 58 56 55 54 53 52 51 49 47 45 43 41 39 38 36 35 35 34 34 35 35 36 37 38 39 40 41 42 43 44 45 46 47 48 50 51 53 54 55 56 57 58 59 60 60 61 61 62 63 63 64 65 66 67 68 69 70 72
52 53 54 55 56 57 58 59 60 61 62 62 63 63 64 64 65 65 66 66 65 65 63 62 60 58 57 56 54 53 52 51 49 48 47 45 42 40 38 36 34 33 32 32 32 33 33 34 35 35 36 36 37 38 38 39 40 41 42 43 44 45 47 48 50 51 52 54 54 55 56 57 57 58 58 59 59 60 61 63 64 65 66 68 69 70
52 53 54 55 56 57 58 59 60 61 61 62 63 63 64 65 65 66 66 66 65 63 61 59 56 55 53 52 51 50 49 47 46 44 42 40 37 35 33 31 31 30 30 31 31 32 33 33 33 34 34 34 34 34 35 36 38 40 41 42 43 45 46 47 48 50 51 52 53 54 55 55 55 55 56 56 56 56 57 59 60 62 64 65 67 68
51 52 53 54 56 57 58 59 60 60 61 62 63 64 65 65 66 66 66 65 63 61 58 55 53 51 50 49 48 47 45 43 41 39 37 34 32 31 30 29 29 30 30 30 31 31 31 31 31 31 31 32 33 34 35 37 40 42 44 45 46 47 47 48 49 50 51 51 52 53 54 55 55 55 55 55 54 54 54 55 56 57 59 62 63 65
51 52 53 54 55 56 58 59 60 60 61 63 64 65 66 66 66 65 64 62 59 56 53 51 49 47 46 46 44 43 41 39 37 34 32 30 29 28 28 29 29 29 29 29 29 28 28 29 30 31 32 34 36 37 39 41 43 45 46 48 48 48 48 49 49 50 50 51 51 52 52 53 54 54 54 54 53 53 52 52 52 53 54 56 59 61
50 51 53 54 55 56 57 58 59 61 62 63 65 66 66 66 65 63 61 57 54 51 48 46 44 43 42 42 41 39 37 35 32 30 29 28 28 28 28 28 28 28 27 27 27 27 27 29 31 33 36 38 39 41 42 43 44 45 47 48 48 48 48 48 48 49 49 49 49 50 50 51 52 53 53 53 52 52 51 51 51 51 51 52 54 56
50 51 52 53 55 56 57 58 59 61 63 64 65 66 66 65 63 60 56 52 49 46 44 42 41 40 38 37 36 34 33 31 29 28 27 27 27 28 28 27 26 26 25 26 26 28 29 31 34 36 38 40 41 42 43 43 44 44 45 45 46 46 46 46 46 46 46 47 47 47 47 48 49 50 51 51 51 51 51 51 50 50 50 50 51 52
50 51 52 53 54 55 56 58 60 62 63 65 65 65 64 62 59 55 51 47 44 42 40 38 37 36 34 33 31 30 29 28 27 27 27 27 27 27 26 25 25 25 25 27 28 30 32 34 36 38 39 40 41 42 43 43 42 42 42 42 42 43 43 43 42 42 42 42 42 43 44 45 46 46 47 48 48 49 49 50 50 50 50 50 50 50
49 50 51 52 53 55 56 58 60 62 63 64 64 63 61 58 55 50 46 43 40 38 36 35 33 32 30 29 27 26 26 25 26 26 27 27 26 26 25 25 25 26 28 29 31 33 35 36 38 39 40 40 41 41 41 40 39 39 38 38 39 39 39 39 38 38 38 38 38 39 40 41 42 43 44 46 46 47 48 49 49 50 50 50 50 50
49 49 50 51 53 54 56 58 60 61 62 62 62 60 57 54 50 46 42 39 36 35 33 32 30 28 27 25 24 23 23 23 24 25 26 26 25 25 25 26 27 28 30 32 33 35 36 37 38 39 40 40 40 39 38 37 36 36 36 37 37 37 37 36 35 35 34 34 34 35 36 37 39 40 42 44 45 46 47 48 49 50 51 51 51 51
48 48 49 51 52 54 55 57 59 60 60 60 59 57 54 50 46 42 38 36 34 32 30 29 27 25 24 23 22 22 22 22 23 23 24 24 24 25 26 27 29 30 32 33 34 35 36 37 39 39 40 40 39 37 36 35 34 35 35 36 36 37 37 36 35 33 32 31 30 30 31 33 34 36 38 40 42 44 46 47 48 50 51 51 52 52
47 47 48 50 51 53 54 56 57 58 58 58 56 54 50 47 43 39 36 33 31 29 28 26 24 23 22 21 21 21 21 21 22 22 22 22 23 25 27 28 30 31 32 33 34 35 36 37 38 39 39 38 37 36 35 34 34 34 35 35 36 36 36 36 35 33 32 30 29 28 28 28 29 30 32 34 37 39 42 44 46 48 49 50 51 52
46 46 47 49 50 52 53 55 56 57 57 56 54 51 48 44 40 36 33 31 29 27 25 23 22 21 20 20 20 20 20 20 20 20 21 22 23 25 27 29 30 31 32 33 33 34 35 36 37 37 37 37 36 35 35 35 35 35 35 35 35 35 35 35 34 34 33 31 30 29 28 27 26 26 26 27 28 31 34 37 40 43 46 48 49 50
44 45 46 47 49 50 52 53 55 55 55 54 52 49 46 42 38 35 32 29 27 25 23 22 20 20 19 19 19 19 19 19 19 20 21 23 25 27 28 29 30 31 31 32 33 34 35 35 36 35 35 36 35 35 35 36 36 36 37 36 36 36 35 34 34 33 33 32 31 31 30 29 28 27 26 25 24 24 25 27 31 35 39 42 45 47
Wind_Direction
280 280 280 280 280 280 280 280 280 280 281 281 281 281 281 281 281 280 280 279 279 278 277 277 276 276 276 275 275 275 275 275 275 275 275 275 275 275 275 275 274 274 274 273 273 272 272 271 271 270 269 269 268 268 267 267 266 265 264 263 263 263 264 264 265 265 265 266 266 267 267 266 265 264 263 264 267 269 269 268 268 266 265 262 258 256
281 281 281 281 281 281 281 281 281 281 282 282 282 282 282 282 281 281 281 280 280 279 278 278 277 276 276 275 275 275 275 275 275 275 275 275 275 274 274 274 274 274 274 274 273 273 272 272 271 270 270 269 268 268 267 267 266 265 264 263 262 262 262 262 263 263 263 264 265 265 266 266 264 262 261 263 266 268 268 267 266 266 265 263 260 258
282 282 282 282 282 282 282 283 283 283 283 283 283 283 282 282 282 281 281 281 280 280 279 279 278 278 277 277 276 276 276 276 275 275 275 275 275 275 275 275 274 274 274 274 273 273 273 272 272 271 270 269 269 268 267 266 266 265 264 264 263 262 261 261 261 261 261 262 263 263 264 264 263 261 260 262 265 266 265 265 265 265 264 263 262 261
283 283 283 284 284 284 284 284 284 284 284 283 283 283 283 282 282 281 281 281 281 280 280 280 280 279 279 279 278 278 277 277 277 277 276 276 276 276 275 275 275 274 274 274 273 273 272 272 271 271 270 269 269 268 267 266 266 265 264 263 263 262 262 261 260 260 260 260 261 261 261 261 260 259 258 260 262 262 262 262 263 263 263 263 262 262
284 284 285 285 285 285 285 285 285 285 284 284 284 283 283 282 282 282 281 281 281 281 281 281 281 281 281 280 280 280 279 279 278 278 278 277 277 276 276 275 275 275 274 274 273 273 272 271 271 270 270 269 269 268 267 266 266 265 264 263 263 262 262 261 261 260 260 260 259 259 259 259 258 257 257 257 258 259 260 260 261 261 261 261 261 261
286 286 286 286 286 286 286 286 285 285 285 284 284 283 283 282 282 282 282 282 282 282 282 282 282 281 281 281 281 281 280 280 280 279 279 278 278 277 277 276 276 275 274 274 273 273 272 272 271 270 270 269 269 268 267 266 266 265 264 264 263 262 262 261 261 260 260 259 259 258 258 257 256 255 255 255 256 257 258 259 260 260 259 259 260 260
287 287 287 287 287 286 286 286 286 285 285 284 284 283 283 283 283 283 282 282 282 282 282 282 282 282 282 282 281 281 281 281 280 280 280 279 279 278 278 277 276 276 275 274 274 273 272 272 271 270 270 269 269 268 267 266 266 265 265 264 264 263 262 261 261 260 260 259 259 258 257 256 255 254 254 254 255 256 257 259 259 259 258 258 257 258
287 287 287 287 287 287 287 286 286 285 285 285 284 284 284 283 283 283 283 283 283 283 283 282 282 282 282 282 282 281 281 281 281 280 280 280 279 279 278 278 277 277 276 275 274 274 273 272 272 271 270 270 269 268 268 267 266 265 265 264 264 263 263 262 261 261 260 259 258 258 257 256 254 253 252 253 254 255 257 258 258 258 257 257 256 256
288 288 288 287 287 287 287 286 286 286 285 285 285 285 284 284 284 284 283 283 283 283 283 283 282 282 282 282 282 281 281 281 281 280 280 280 280 279 279 278 278 277 277 276 276 275 274 273 272 271 271 270 269 269 268 267 267 266 265 264 264 264 263 263 262 261 260 259 258 258 257 256 255 253 252 252 253 254 255 256 257 257 256 256 256 256
288 288 288 287 287 287 286 286 286 286 286 286 285 285 285 285 284 284 284 283 283 283 283 283 282 282 282 282 281 281 281 280 280 280 279 279 279 279 278 278 278 277 277 277 276 276 275 274 273 272 271 271 270 269 269 268 267 266 266 265 264 264 263 263 262 262 261 260 259 258 258 257 257 255 253 251 251 252 253 254 255 255 255 255 256 256
288 288 287 287 287 287 287 287 287 287 287 286 286 286 285 285 285 285 284 284 283 283 283 283 282 282 282 282 281 281 280 280 280 279 279 278 278 277 277 277 276 276 276 276 276 275 275 274 274 273 272 272 271 270 269 268 268 267 266 265 265 264 263 263 263 262 261 260 259 258 258 258 258 257 256 254 252 252 252 253 253 253 252 253 254 256
288 287 287 287 287 287 287 287 287 287 287 287 286 286 286 286 285 285 285 284 284 283 283 283 282 282 282 281 281 280 280 279 279 278 278 277 277 277 276 276 275 275 275 275 275 274 274 274 274 273 273 272 271 271 270 269 268 267 266 266 265 264 264 263 263 262 262 261 260 259 258 258 258 258 257 256 255 253 253 253 253 252 251 251 251 253
288 288 288 288 288 287 288 287 287 287 287 287 286 286 286 286 286 285 285 285 284 284 283 283 282 282 282 281 281 280 280 279 279 278 278 277 277 276 276 275 275 274 274 274 273 273 273 273 273 272 272 272 271 271 270 269 269 268 267 266 265 265 264 263 263 262 262 261 260 260 259 258 258 257 257 257 256 255 254 254 254 253 252 251 250 251
288 288 288 288 288 288 287 287 287 287 287 287 286 286 286 286 286 285 285 285 284 284 284 283 283 282 282 281 281 281 280 280 279 278 278 277 277 277 276 276 275 274 274 273 273 273 272 272 272 271 271 271 270 270 270 269 269 268 267 267 266 265 264 263 263 262 262 261 261 260 259 259 258 257 257 257 256 256 255 255 255 254 253 251 251 250
288 288 288 288 288 288 287 287 287 287 287 287 286 286 286 286 286 286 285 285 285 284 284 283 283 283 283 282 282 281 281 280 280 279 279 278 278 277 277 276 276 275 274 274 273 273 272 272 271 271 270 270 269 269 269 268 268 268 267 267 266 265 265 264 263 262 262 261 261 260 260 259 259 258 257 257 256 256 256 255 255 254 253 252 251 251
288 288 288 288 288 288 288 287 287 287 287 287 287 287 287 286 286 286 286 285 285 285 285 284 284 283 283 282 282 282 281 281 280 280 279 279 279 278 278 277 277 276 275 275 274 273 273 272 271 271 270 270 269 269 268 268 267 267 267 266 266 266 265 264 264 263 262 261 261 260 260 259 259 258 257 257 257 256 256 256 255 254 253 252 251 251
288 288 288 288 288 288 288 288 288 288 287 287 287 287 287 287 287 287 286 286 286 286 285 285 284 284 284 283 282 282 281 281 281 280 280 279 279 278 278 278 277 277 276 275 275 274 273 273 272 271 271 270 269 269 268 268 267 267 266 266 266 265 265 264 264 263 262 262 261 260 260 259 259 258 257 257 256 256 256 256 255 255 254 253 252 251
289 289 289 289 289 289 288 288 288 288 288 288 288 288 288 288 287 287 287 287 287 287 286 286 285 285 285 284 284 283 282 282 281 281 280 280 279 279 278 278 277 277 276 276 275 275 274 273 273 272 271 271 270 269 269 268 267 267 266 266 265 265 264 264 264 263 263 262 261 261 260 259 258 258 257 257 256 256 255 255 255 255 254 254 253 252
289 289 289 289 289 289 289 289 289 289 289 289 289 289 289 288 288 288 288 288 288 288 288 287 287 286 286 286 285 284 283 283 282 282 281 281 280 279 279 278 278 277 277 276 276 275 274 274 273 272 272 271 270 270 269 268 268 267 266 266 265 265 264 264 263 263 262 262 261 261 260 259 259 258 257 257 256 255 255 255 254 254 254 254 253 253
290 290 290 290 290 290 290 290 290 290 290 289 289 290 290 290 290 290 289 289 289 289 289 289 288 288 288 287 286 285 285 284 284 283 282 282 281 280 280 279 278 278 277 277 276 275 275 274 273 273 272 271 270 270 269 268 268 267 266 266 265 265 264 264 263 263 262 262 261 261 260 260 259 258 258 257 256 256 255 254 254 254 253 253 253 253
290 290 290 290 290 290 290 290 290 290 290 290 291 291 291 291 291 291 291 290 290 290 290 290 290 289 289 288 288 287 286 286 285 284 283 283 282 281 281 280 279 279 278 277 276 276 275 274 273 273 272 271 270 270 269 268 268 267 266 266 265 265 264 264 263 263 262 262 261 261 260 260 259 259 258 257 257 256 255 255 254 254 253 253 252 252
291 291 291 291 291 291 291 291 291 291 291 292 292 292 292 292 292 292 292 292 292 292 292 292 291 291 291 290 290 289 288 288 287 286 285 284 283 282 282 281 280 280 279 278 277 276 275 274 274 273 272 271 270 269 269 268 267 266 266 265 265 264 264 263 263 262 262 261 261 260 260 260 259 259 258 258 257 256 256 255 254 254 253 253 252 252
292 292 292 292 292 292 292 292 293 293 293 293 293 293 293 294 294 294 293 294 293 293 293 293 293 293 293 292 291 291 290 290 289 288 287 286 285 284 283 283 282 281 280 279 278 277 276 275 274 273 272 271 270 269 269 268 267 266 266 265 264 263 263 262 262 261 261 260 260 260 259 259 259 258 258 257 257 256 256 255 255 254 253 253 252 252
292 292 293 293 293 293 294 294 294 294 295 295 295 295 295 295 295 295 295 295 295 295 295 295 295 295 294 294 294 293 292 292 291 290 289 288 287 286 286 285 285 283 282 281 280 279 278 277 276 275 273 272 271 270 269 268 267 266 266 265 264 263 262 261 261 260 260 259 259 258 258 258 258 257 257 257 257 256 256 255 255 254 254 253 252 252
293 294 294 294 295 295 295 295 296 296 296 296 296 296 297 297 297 297 297 297 297 297 297 297 297 296 296 296 296 295 294 294 293 293 292 291 290 289 289 288 287 286 285 283 283 282 281 280 278 277 276 275 273 272 271 270 268 267 266 265 264 263 262 261 260 260 259 258 258 257 257 257 256 256 256 256 256 255 255 255 254 254 254 253 252 252
295 295 295 296 296 296 297 297 297 297 297 298 298 298 299 299 299 299 299 299 299 299 299 299 299 298 297 297 297 296 295 295 295 294 294 293 293 292 291 290 290 289 287 286 286 285 284 283 282 281 280 278 277 275 274 272 271 269 268 266 265 264 263 261 260 259 259 258 257 256 256 255 255 255 254 254 254 254 254 254 254 253 253 253 252 252
296 296 297 297 298 298 298 299 299 300 300 301 301 301 302 302 302 302 302 301 301 302 301 301 300 300 299 299 298 298 297 297 296 295 295 295 295 294 293 292 292 291 289 288 288 287 287 285 284 283 283 282 280 279 278 276 274 273 271 269 267 266 264 263 261 260 259 258 257 256 255 255 254 253 253 253 253 253 252 253 253 252 252 252 252 251
298 298 299 299 300 301 301 302 303 303 304 304 304 305 305 305 305 304 304 303 304 304 303 302 302 301 301 300 300 299 298 297 297 296 297 297 297 295 294 294 293 292 290 289 289 288 288 287 286 285 285 284 283 282 281 280 278 276 275 273 271 269 267 265 263 262 260 259 258 256 255 254 253 253 252 251 251 251 251 251 251 251 251 251 251 250
301 301 302 303 304 305 305 306 306 307 307 307 307 307 307 307 307 306 305 305 305 305 304 303 303 302 302 301 300 300 299 298 297 297 298 298 297 296 295 295 294 292 290 289 289 288 287 287 286 285 285 285 285 284 283 282 281 280 278 276 275 273 271 268 266 264 262 261 259 257 256 255 254 253 252 251 250 250 249 249 249 249 249 249 249 249
304 305 306 307 307 308 308 309 309 309 309 309 308 308 308 308 307 307 306 306 306 305 304 304 303 302 302 301 301 300 299 298 297 298 298 298 298 297 296 295 294 292 291 289 288 287 286 285 285 285 284 284 284 284 283 283 282 282 281 280 278 276 274 272 270 267 265 263 261 259 258 256 255 253 252 251 250 249 249 248 248 247 247 247 248 248
308 308 309 309 309 309 309 309 309 309 309 309 309 308 308 308 308 307 306 306 306 305 304 304 303 303 302 302 301 300 299 298 298 298 299 299 298 297 296 296 294 293 291 289 288 286 285 284 283 283 283 283 283 283 282 282 282 282 281 281 280 279 277 275 273 271 269 267 264 262 260 258 256 255 253 252 251 250 249 248 247 247 246 246 246 246
309 309 309 310 310 309 309 309 309 309 309 309 309 308 308 308 308 307 307 306 306 305 304 304 303 303 302 302 301 300 299 298 298 299 299 299 298 297 297 296 294 292 291 290 288 286 284 283 282 281 281 281 281 281 281 281 281 280 280 280 279 278 278 277 275 274 272 270 268 266 264 261 259 257 255 254 252 251 250 248 247 247 246 245 245 245
309 309 309 309 310 309 309 309 309 309 309 309 309 309 309 308 308 307 307 306 306 305 304 304 303 303 302 302 301 301 300 299 299 299 299 299 298 297 297 295 294 292 291 290 289 287 285 283 281 281 280 280 280 280 280 280 280 279 279 279 278 278 277 277 276 275 274 272 271 269 267 265 262 260 258 256 254 253 251 250 249 247 246 245 244 244
310 310 310 310 310 310 310 310 310 310 310 310 310 309 309 309 308 308 307 307 306 305 305 304 304 303 303 302 302 301 300 299 299 299 299 299 298 297 296 295 293 292 291 290 289 288 286 284 282 281 280 279 279 279 279 279 279 279 279 279 279 278 278 278 277 276 275 274 273 271 270 268 266 264 261 259 257 255 253 252 250 249 248 246 245 244
310 311 311 311 311 311 311 311 311 311 311 310 310 310 310 309 309 308 308 307 307 306 306 305 305 304 303 303 302 301 300 300 300 300 300 299 298 297 296 294 293 292 291 290 289 288 287 285 284 282 281 280 280 280 280 280 280 281 281 281 280 280 280 280 279 278 277 276 275 273 272 270 268 267 264 262 260 258 256 254 252 251 249 248 246 245
311 311 311 311 311 311 311 311 311 311 311 311 311 310 310 310 309 309 308 308 307 307 307 306 306 305 304 303 303 302 301 300 300 300 299 298 298 297 296 295 294 293 292 291 290 289 288 287 286 285 284 283 282 282 282 282 282 283 283 283 282 282 282 281 281 280 279 278 277 275 273 272 270 269 267 265 263 261 259 257 255 253 251 250 248 246
311 311 312 312 312 312 312 312 312 312 312 311 311 311 310 310 309 309 309 308 308 308 308 307 307 306 305 304 303 302 301 301 300 300 299 298 297 297 296 295 295 294 294 293 292 291 290 289 288 288 287 286 285 285 285 285 285 285 285 284 284 284 283 283 282 281 281 279 278 277 275 274 272 270 268 266 264 262 260 259 257 255 253 252 250 248
312 312 312 312 312 312 312 312 312 312 312 312 311 311 311 310 310 309 309 309 309 309 309 308 307 306 305 304 303 302 301 301 300 299 299 298 298 297 297 296 296 296 295 295 294 293 293 292 291 290 290 289 288 288 288 288 288 287 287 286 286 286 285 284 283 282 282 281 279 278 277 275 273 271 269 267 265 263 261 259 258 256 254 253 251 250
312 313 313 313 313 313 313 313 313 313 312 312 312 311 311 310 310 310 310 310 310 310 309 308 307 306 305 303 303 302 302 301 301 300 300 299 299 299 298 298 298 298 298 297 296 296 295 294 293 293 292 292 292 292 292 292 292 291 290 290 289 288 288 287 286 284 283 281 280 279 278 276 275 273 271 268 266 264 262 260 258 256 255 253 252 251
314 314 314 314 314 314 314 314 313 313 313 312 312 311 311 311 311 311 311 311 311 310 310 308 307 305 304 303 302 302 302 302 301 301 301 301 300 300 300 300 300 300 300 300 299 298 297 297 296 296 295 296 296 296 297 297 296 296 295 295 294 292 291 290 289 288 285 283 281 280 278 277 276 274 273 271 268 266 263 261 259 257 255 253 252 251
315 315 315 315 315 315 315 315 314 314 313 313 313 312 312 312 312 313 313 312 312 311 310 308 307 305 304 303 303 303 303 303 303 302 302 302 302 303 303 303 303 303 302 302 301 301 300 300 300 300 301 301 301 301 302 301 301 300 299 298 296 295 294 293 292 290 288 285 283 281 279 277 275 274 273 272 271 269 266 264 261 258 256 254 252 251
316 316 316 316 316 316 316 316 315 315 314 314 314 313 314 314 314 314 314 313 312 311 310 308 307 306 305 304 304 304 304 304 304 304 304 304 305 306 306 306 306 306 305 304 304 304 304 305 305 306 306 306 306 306 305 305 304 303 302 301 299 298 296 295 293 291 289 287 285 282 279 277 275 273 272 272 271 270 269 267 264 262 259 256 253 251
317 317 317 317 317 317 317 317 317 316 316 316 315 315 315 316 316 316 315 314 312 311 310 308 307 306 306 306 306 306 306 306 306 306 306 307 307 309 309 309 309 308 308 307 307 308 308 309 309 310 310 310 310 310 310 309 309 308 307 305 304 302 300 298 295 293 291 288 286 283 280 277 275 273 272 271 271 270 270 269 267 265 262 259 256 253
318 319 319 319 319 319 319 318 318 318 317 317 317 317 317 317 317 317 316 315 313 311 310 309 308 308 307 307 307 307 307 307 307 308 308 309 310 311 312 311 311 311 311 311 311 311 312 312 312 313 313 313 314 314 315 315 316 315 314 312 310 308 305 302 299 295 292 289 286 284 281 278 275 273 271 270 269 269 269 269 268 267 265 263 260 257
320 320 321 321 321 321 320 320 320 319 319 319 319 319 320 320 319 318 317 315 314 312 311 310 309 309 309 309 309 309 309 309 309 310 311 312 313 314 314 313 313 313 313 314 314 314 315 315 315 316 316 317 318 320 322 323 323 323 322 320 317 313 310 306 302 298 294 291 288 284 281 278 275 273 271 269 268 267 267 267 267 267 266 264 262 260
322 322 322 322 322 322 322 322 322 322 321 322 322 322 322 322 321 320 318 317 315 313 312 311 311 311 311 310 310 310 310 310 311 312 313 314 315 315 315 315 315 315 315 316 316 316 317 317 318 318 319 320 322 325 327 329 330 331 330 328 325 322 318 314 309 304 300 295 291 286 283 279 276 273 270 268 266 265 265 265 265 265 265 264 263 261
324 324 324 324 324 324 324 324 324 324 324 325 325 325 325 324 323 322 320 318 317 315 314 313 313 313 312 312 311 311 310 311 312 313 314 315 316 316 316 316 316 316 316 317 318 318 319 320 320 321 321 323 325 328 331 333 335 336 337 336 335 333 330 327 322 317 311 305 299 293 288 283 279 275 271 268 266 265 264 263 263 263 263 263 263 262
325 325 326 326 326 326 326 327 327 327 328 328 329 328 328 327 326 324 322 320 318 317 316 315 315 315 315 314 313 312 312 312 313 314 314 315 315 316 316 317 317 317 318 319 319 320 321 322 322 322 323 323 325 328 331 334 336 337 338 339 340 340 340 339 336 333 328 322 315 308 301 294 288 282 277 273 269 266 264 263 263 262 262 262 262 261
327 327 328 328 328 329 329 330 330 331 332 332 332 332 331 330 329 326 324 322 320 319 318 317 317 317 317 316 316 315 315 315 315 315 315 315 315 316 317 318 318 319 320 321 322 323 323 324 324 323 322 322 323 326 329 330 332 333 334 336 338 340 342 343 343 343 341 338 334 329 322 315 306 298 290 283 277 272 268 265 263 262 261 261 260 259
329 330 330 330 331 332 332 333 334 335 336 337 337 336 335 333 331 329 326 324 322 321 320 320 320 321 320 319 318 317 317 317 317 316 316 317 318 318 319 319 320 321 322 323 324 325 325 326 324 322 319 318 319 322 324 326 327 328 329 331 333 335 337 339 341 342 343 343 343 342 340 336 331 324 315 305 295 285 277 271 267 264 262 260 259 258
331 332 332 333 334 335 336 337 339 340 340 341 341 340 339 336 334 331 328 326 324 323 323 323 324 324 323 322 321 320 320 320 319 319 320 320 321 321 321 322 322 323 324 325 326 326 326 326 324 321 317 315 315 317 320 322 323 323 325 327 328 330 331 333 335 336 337 338 339 340 341 342 342 341 338 332 324 313 299 287 276 269 265 261 259 257
Height
5678 5676 5675 5674 5673 5671 5668 5667 5666 5665 5663 5660 5659 5658 5656 5654 5652 5650 5649 5648 5647 5646 5644 5643 5642 5642 5640 5639 5637 5636 5635 5634 5633 5632 5631 5631 5630 5629 5628 5628 5627 5627 5627 5627 5627 5627 5627 5627 5627 5627 5627 5627 5628 5628 5628 5628 5628 5629 5629 5630 5630 5630 5630 5630 5630 5630 5631 5632 5633 5634 5634 5635 5636 5637 5637 5638 5640 5641 5641 5641 5642 5642 5643 5644 5645 5646
5673 5671 5669 5668 5667 5665 5662 5660 5659 5659 5657 5654 5652 5651 5650 5648 5645 5643 5641 5640 5638 5637 5636 5635 5634 5633 5632 5631 5630 5629 5627 5626 5625 5625 5624 5623 5622 5622 5621 5621 5620 5620 5619 5619 5619 5619 5619 5619 5620 5620 5620 5620 5621 5621 5621 5621 5621 5622 5622 5622 5622 5623 5623 5623 5624 5624 5625 5626 5626 5627 5628 5629 5630 5630 5631 5632 5634 5636 5636 5635 5636 5637 5637 5638 5639 5640
5667 5665 5663 5661 5661 5659 5657 5654 5652 5652 5651 5648 5646 5644 5642 5641 5638 5636 5633 5632 5630 5628 5627 5627 5626 5625 5624 5623 5622 5621 5620 5618 5618 5617 5617 5616 5615 5614 5614 5613 5613 5613 5612 5612 5612 5612 5612 5612 5612 5612 5613 5613 5613 5614 5614 5614 5614 5614 5614 5615 5615 5615 5616 5617 5617 5617 5618 5619 5619 5620 5621 5622 5623 5624 5624 5626 5628 5629 5630 5629 5630 5631 5632 5632 5633 5634
5661 5659 5657 5655 5654 5652 5650 5648 5646 5645 5643 5641 5639 5637 5635 5633 5631 5628 5626 5625 5623 5621 5620 5619 5618 5617 5616 5615 5614 5613 5612 5611 5610 5609 5609 5608 5607 5607 5606 5606 5606 5605 5605 5605 5605 5605 5605 5605 5605 5605 5605 5606 5606 5606 5606 5607 5607 5607 5607 5607 5607 5608 5608 5609 5610 5610 5611 5612 5612 5613 5614 5615 5616 5617 5618 5620 5621 5622 5622 5623 5624 5625 5625 5626 5627 5628
5654 5653 5650 5648 5647 5645 5643 5641 5639 5638 5636 5634 5632 5630 5627 5625 5623 5621 5619 5618 5617 5615 5613 5612 5611 5610 5609 5608 5607 5606 5605 5604 5603 5602 5601 5601 5600 5599 5599 5598 5598 5598 5598 5598 5598 5598 5597 5597 5597 5597 5597 5598 5598 5598 5598 5599 5599 5599 5599 5600 5600 5600 5601 5602 5602 5603 5603 5604 5605 5606 5607 5608 5609 5610 5612 5613 5614 5615 5615 5616 5617 5618 5619 5620 5621 5622
5647 5646 5643 5642 5640 5638 5636 5634 5632 5630 5628 5626 5624 5622 5621 5618 5617 5615 5613 5612 5610 5609 5607 5606 5605 5604 5602 5601 5600 5599 5598 5597 5596 5595 5594 5593 5592 5592 5591 5591 5591 5591 5590 5590 5590 5590 5590 5590 5590 5590 5590 5590 5590 5590 5591 5591 5591 5591 5592 5592 5592 5593 5593 5594 5595 5595 5596 5597 5597 5598 5599 5601 5602 5603 5604 5605 5606 5607 5608 5609 5611 5612 5613 5614 5616 5617
5639 5638 5636 5635 5632 5630 5628 5626 5625 5623 5621 5619 5617 5615 5614 5612 5610 5609 5607 5606 5604 5603 5602 5600 5599 5598 5597 5595 5594 5593 5592 5591 5590 5588 5587 5586 5586 5585 5584 5584 5583 5583 5583 5583 5583 5583 5583 5582 5582 5582 5582 5582 5582 5582 5583 5583 5583 5583 5583 5584 5584 5585 5586 5586 5587 5587 5588 5589 5590 5591 5592 5593 5594 5596 5597 5598 5599 5600 5601 5602 5604 5605 5607 5608 5609 5611
5632 5630 5628 5627 5626 5623 5621 5618 5617 5616 5615 5612 5611 5609 5607 5606 5604 5603 5602 5600 5599 5597 5596 5595 5593 5592 5591 5590 5588 5587 5586 5585 5584 5582 5581 5580 5579 5578 5577 5577 5576 5576 5575 5575 5575 5575 5575 5575 5575 5575 5575 5575 5575 5575 5575 5575 5575 5575 5576 5576 5576 5577 5577 5578 5579 5580 5581 5582 5582 5583 5584 5586 5587 5588 5589 5591 5592 5593 5594 5595 5597 5598 5600 5602 5603 5604
5625 5623 5621 5620 5619 5617 5615 5612 5610 5609 5608 5607 5604 5602 5601 5600 5598 5597 5596 5595 5593 5592 5591 5589 5588 5586 5585 5584 5583 5581 5580 5579 5577 5576 5575 5573 5572 5571 5570 5570 5569 5568 5568 5568 5567 5567 5567 5567 5567 5567 5567 5567 5567 5567 5567 5567 5567 5567 5568 5568 5568 5569 5569 5570 5571 5572 5573 5574 5575 5576 5577 5578 5579 5581 5582 5583 5585 5586 5587 5588 5590 5591 5593 5595 5596 5598
5618 5617 5615 5612 5611 5611 5609 5606 5603 5602 5602 5600 5597 5595 5594 5594 5592 5591 5590 5589 5587 5586 5585 5583 5582 5581 5579 5578 5577 5575 5574 5572 5571 5570 5568 5567 5565 5564 5563 5563 5562 5561 5561 5560 5560 5560 5559 5559 5559 5560 5560 5560 5560 5560 5560 5560 5560 5560 5560 5560 5561 5561 5562 5562 5563 5564 5565 5566 5567 5568 5569 5570 5571 5572 5574 5575 5577 5578 5580 5581 5582 5584 5586 5587 5589 5591
5611 5610 5609 5607 5605 5603 5603 5601 5598 5596 5595 5593 5591 5588 5587 5587 5586 5585 5583 5582 5581 5580 5579 5577 5576 5575 5573 5572 5570 5569 5568 5566 5564 5562 5561 5560 5558 5557 5557 5556 5555 5555 5554 5553 5553 5552 5552 5552 5551 5551 5552 5552 5552 5552 5552 5552 5552 5552 5552 5552 5553 5553 5554 5554 5555 5556 5557 5558 5559 5560 5561 5562 5563 5565 5566 5567 5569 5571 5572 5573 5575 5577 5578 5580 5582 5584
5605 5604 5602 5601 5599 5597 5596 5594 5592 5590 5588 5587 5585 5582 5580 5579 5579 5578 5577 5575 5574 5573 5572 5571 5569 5567 5566 5565 5563 5561 5561 5559 5557 5555 5554 5552 5551 5550 5549 5549 5548 5547 5547 5547 5546 5545 5545 5544 5543 5543 5543 5543 5543 5543 5544 5544 5544 5544 5545 5545 5545 5546 5546 5547 5547 5548 5549 5550 5551 5552 5553 5554 5556 5557 5558 5560 5561 5563 5564 5565 5567 5569 5571 5572 5574 5576
5600 5598 5597 5595 5593 5591 5590 5588 5586 5584 5582 5580 5578 5576 5574 5572 5572 5571 5570 5567 5566 5566 5565 5564 5562 5560 5559 5557 5555 5553 5552 5551 5550 5548 5547 5545 5544 5542 5542 5541 5541 5540 5540 5539 5539 5538 5537 5537 5536 5535 5535 5535 5535 5535 5535 5535 5535 5536 5536 5537 5537 5538 5538 5539 5540 5541 5541 5542 5543 5544 5545 5547 5548 5549 5550 5552 5553 5555 5556 5557 5559 5561 5563 5565 5566 5568
5594 5593 5591 5589 5587 5585 5583 5582 5579 5577 5575 5574 5572 5570 5568 5566 5565 5564 5562 5560 5558 5557 5557 5556 5554 5552 5551 5549 5547 5546 5544 5542 5541 5540 5539 5538 5536 5535 5535 5534 5533 5532 5532 5532 5531 5530 5529 5529 5528 5527 5527 5527 5527 5527 5526 5526 5527 5527 5527 5528 5528 5529 5530 5531 5532 5532 5533 5534 5535 5536 5537 5539 5540 5541 5542 5544 5545 5547 5548 5549 5551 5553 5555 5557 5559 5560
5589 5587 5585 5582 5580 5578 5577 5575 5573 5571 5569 5567 5566 5564 5562 5559 5557 5556 5555 5552 5550 5549 5549 5547 5546 5544 5542 5541 5539 5537 5535 5533 5532 5532 5531 5530 5528 5527 5527 5526 5524 5523 5524 5524 5523 5522 5521 5521 5520 5519 5519 5519 5519 5518 5518 5518 5518 5518 5518 5519 5519 5520 5521 5522 5523 5524 5526 5527 5527 5529 5530 5531 5532 5533 5535 5536 5537 5538 5540 5541 5543 5545 5547 5548 5551 5552
5583 5581 5578 5576 5574 5572 5571 5569 5567 5564 5562 5560 5559 5557 5555 5552 5550 5548 5547 5545 5542 5541 5540 5539 5537 5536 5534 5532 5529 5527 5526 5524 5522 5522 5522 5522 5520 5518 5517 5517 5516 5514 5514 5515 5514 5513 5512 5512 5511 5510 5510 5510 5510 5509 5509 5509 5509 5509 5509 5510 5510 5511 5512 5513 5514 5516 5517 5518 5519 5521 5522 5523 5524 5525 5527 5528 5529 5530 5532 5533 5535 5536 5538 5540 5542 5544
5577 5574 5572 5570 5568 5566 5564 5562 5560 5558 5555 5553 5551 5549 5547 5545 5542 5540 5538 5537 5535 5533 5531 5530 5528 5527 5525 5523 5520 5518 5517 5516 5513 5512 5512 5514 5512 5509 5507 5507 5506 5504 5504 5505 5504 5503 5502 5502 5501 5501 5500 5500 5500 5500 5500 5500 5500 5500 5500 5501 5501 5502 5503 5504 5505 5507 5508 5509 5511 5512 5513 5514 5516 5517 5518 5520 5521 5522 5524 5525 5527 5528 5530 5532 5534 5536
5570 5568 5566 5563 5561 5559 5557 5555 5553 5551 5548 5546 5544 5542 5540 5537 5535 5532 5530 5528 5526 5524 5522 5520 5519 5517 5516 5514 5511 5507 5506 5507 5505 5503 5502 5504 5503 5500 5497 5497 5496 5494 5493 5494 5494 5492 5491 5491 5491 5490 5490 5490 5490 5490 5490 5490 5490 5490 5491 5491 5492 5493 5494 5495 5496 5497 5498 5500 5501 5502 5504 5506 5507 5508 5510 5511 5513 5514 5516 5517 5518 5520 5522 5524 5526 5528
5564 5562 5560 5557 5555 5552 5550 5548 5546 5543 5541 5539 5537 5535 5532 5529 5527 5524 5522 5519 5517 5515 5513 5511 5509 5507 5506 5504 5501 5497 5494 5496 5495 5493 5492 5493 5493 5490 5487 5486 5486 5485 5483 5484 5483 5482 5481 5480 5480 5479 5479 5479 5479 5478 5478 5478 5479 5480 5480 5481 5482 5483 5484 5485 5487 5488 5489 5490 5492 5493 5495 5496 5498 5499 5501 5502 5504 5506 5507 5509 5511 5512 5514 5516 5518 5520
5557 5555 5553 5551 5548 5546 5543 5541 5538 5536 5533 5531 5529 5527 5524 5522 5519 5517 5514 5511 5509 5507 5504 5502 5501 5498 5495 5494 5491 5487 5484 5485 5485 5483 5482 5482 5482 5480 5476 5475 5476 5476 5474 5473 5472 5471 5469 5469 5468 5468 5468 5467 5467 5466 5466 5467 5467 5468 5469 5470 5471 5472 5474 5475 5477 5478 5479 5481 5482 5483 5485 5487 5488 5490 5492 5493 5495 5497 5499 5500 5502 5504 5506 5508 5510 5512
5551 5548 5546 5544 5542 5539 5536 5533 5531 5528 5526 5523 5521 5519 5516 5514 5511 5509 5506 5503 5501 5499 5496 5494 5492 5490 5487 5485 5482 5478 5474 5474 5475 5474 5472 5473 5473 5470 5466 5466 5466 5466 5464 5463 5461 5460 5459 5458 5457 5456 5456 5455 5455 5454 5454 5454 5455 5456 5457 5458 5459 5461 5462 5464 5466 5467 5469 5470 5472 5473 5475 5477 5478 5480 5482 5484 5486 5487 5489 5491 5493 5495 5497 5499 5502 5504
5545 5542 5538 5536 5534 5532 5529 5526 5523 5520 5518 5516 5513 5511 5508 5506 5504 5501 5498 5496 5493 5491 5489 5487 5485 5482 5479 5477 5474 5470 5466 5465 5465 5464 5463 5464 5464 5461 5457 5456 5457 5457 5455 5452 5451 5450 5449 5448 5447 5445 5444 5443 5443 5442 5442 5442 5442 5443 5444 5445 5447 5449 5450 5452 5454 5456 5457 5459 5461 5463 5465 5467 5468 5470 5472 5474 5476 5478 5480 5482 5484 5486 5488 5491 5493 5495
5538 5535 5532 5529 5527 5524 5522 5519 5516 5513 5510 5508 5506 5503 5501 5498 5497 5494 5491 5489 5487 5485 5482 5480 5478 5475 5472 5469 5466 5463 5459 5457 5456 5455 5454 5455 5455 5453 5449 5448 5448 5448 5446 5443 5442 5441 5440 5438 5437 5436 5434 5433 5432 5431 5430 5430 5430 5431 5432 5433 5434 5436 5437 5439 5441 5443 5445 5447 5449 5451 5453 5456 5457 5459 5462 5463 5466 5468 5470 5472 5474 5477 5479 5481 5484 5486
5530 5528 5525 5522 5520 5517 5514 5512 5509 5506 5504 5502 5499 5497 5494 5492 5490 5487 5484 5482 5480 5478 5476 5474 5472 5470 5466 5463 5460 5457 5453 5449 5447 5447 5447 5447 5447 5445 5442 5440 5440 5440 5437 5434 5432 5432 5432 5429 5427 5426 5425 5424 5422 5421 5420 5420 5420 5420 5420 5421 5422 5422 5424 5426 5427 5429 5432 5434 5437 5439 5441 5444 5446 5448 5450 5453 5455 5457 5459 5462 5464 5466 5469 5472 5474 5477
5524 5521 5518 5516 5513 5510 5508 5505 5502 5500 5498 5495 5493 5491 5488 5486 5483 5481 5478 5476 5474 5472 5471 5469 5467 5464 5460 5457 5455 5452 5447 5442 5440 5440 5440 5439 5439 5438 5436 5433 5432 5432 5430 5426 5424 5423 5424 5422 5418 5416 5415 5415 5413 5412 5411 5411 5411 5410 5409 5410 5410 5411 5411 5412 5414 5416 5418 5421 5423 5426 5428 5431 5433 5436 5438 5441 5443 5446 5448 5451 5453 5456 5459 5462 5465 5468
5517 5515 5512 5509 5507 5504 5502 5499 5497 5494 5492 5490 5487 5485 5483 5481 5478 5476 5473 5470 5468 5466 5464 5462 5460 5457 5454 5452 5450 5446 5441 5436 5433 5433 5433 5433 5432 5431 5428 5426 5425 5425 5423 5419 5417 5416 5417 5415 5411 5407 5407 5406 5405 5403 5402 5402 5402 5401 5400 5400 5400 5400 5400 5401 5402 5404 5405 5407 5409 5412 5415 5417 5420 5423 5426 5429 5431 5434 5437 5439 5442 5445 5448 5452 5455 5458
5511 5508 5506 5503 5501 5498 5496 5493 5491 5488 5486 5483 5481 5479 5477 5475 5473 5470 5467 5464 5462 5461 5458 5456 5453 5451 5448 5446 5443 5440 5436 5431 5427 5426 5426 5427 5427 5425 5421 5419 5418 5418 5416 5413 5411 5410 5410 5408 5404 5401 5399 5398 5397 5395 5394 5394 5393 5392 5392 5391 5391 5391 5391 5391 5392 5393 5394 5395 5397 5399 5402 5404 5407 5410 5412 5415 5418 5421 5424 5427 5430 5433 5437 5440 5443 5447
5505 5502 5500 5497 5495 5492 5490 5487 5485 5482 5480 5477 5475 5472 5471 5469 5467 5464 5461 5458 5457 5455 5452 5449 5447 5445 5442 5440 5437 5434 5430 5426 5422 5419 5419 5421 5421 5418 5415 5413 5412 5411 5409 5407 5405 5404 5403 5401 5398 5395 5393 5392 5390 5389 5387 5386 5385 5384 5383 5383 5383 5383 5382 5383 5383 5383 5384 5385 5386 5388 5390 5392 5394 5397 5399 5402 5405 5408 5411 5414 5417 5421 5424 5428 5431 5435
5499 5496 5494 5492 5489 5487 5484 5482 5479 5477 5474 5472 5469 5467 5464 5462 5461 5458 5455 5452 5450 5449 5446 5442 5440 5438 5437 5434 5431 5428 5424 5419 5415 5414 5414 5415 5414 5412 5409 5407 5406 5404 5402 5401 5400 5399 5397 5395 5392 5390 5388 5386 5384 5383 5381 5379 5378 5377 5376 5376 5375 5375 5375 5375 5375 5375 5376 5376 5377 5378 5379 5380 5382 5384 5386 5389 5392 5395 5398 5401 5404 5408 5411 5415 5419 5423
5493 5491 5488 5486 5484 5482 5480 5477 5474 5472 5469 5467 5464 5462 5459 5457 5455 5452 5450 5447 5445 5443 5440 5437 5434 5432 5430 5428 5425 5422 5417 5412 5409 5408 5409 5409 5407 5404 5403 5402 5400 5397 5395 5395 5395 5393 5392 5389 5387 5385 5383 5381 5379 5377 5376 5374 5372 5371 5370 5370 5369 5368 5368 5367 5367 5367 5368 5368 5368 5369 5370 5371 5372 5373 5375 5377 5379 5382 5385 5387 5391 5394 5397 5402 5406 5411
5489 5487 5485 5482 5480 5477 5475 5473 5470 5468 5465 5462 5460 5457 5454 5452 5449 5447 5444 5441 5439 5437 5434 5431 5428 5425 5423 5422 5419 5416 5412 5407 5403 5402 5403 5403 5401 5398 5397 5396 5393 5390 5387 5388 5388 5388 5386 5385 5382 5380 5378 5376 5374 5372 5370 5369 5367 5366 5365 5364 5363 5362 5361 5360 5360 5360 5360 5361 5361 5361 5362 5362 5363 5363 5365 5366 5368 5370 5372 5375 5377 5380 5384 5388 5393 5398
5487 5484 5482 5479 5476 5474 5472 5469 5467 5464 5461 5458 5455 5452 5449 5447 5444 5441 5438 5436 5433 5431 5429 5426 5422 5420 5417 5415 5413 5410 5406 5402 5398 5396 5397 5397 5395 5392 5391 5390 5387 5384 5381 5381 5381 5381 5380 5379 5377 5375 5373 5372 5369 5367 5365 5364 5362 5361 5360 5359 5358 5357 5355 5354 5353 5353 5353 5353 5353 5353 5354 5354 5354 5355 5356 5357 5358 5360 5362 5363 5366 5368 5371 5375 5380 5385
5484 5481 5479 5476 5473 5471 5468 5465 5462 5460 5457 5454 5451 5447 5445 5442 5439 5436 5433 5430 5427 5425 5423 5420 5417 5414 5411 5409 5407 5404 5400 5397 5393 5391 5391 5391 5389 5387 5384 5383 5381 5378 5376 5375 5374 5373 5373 5373 5372 5370 5369 5367 5365 5362 5360 5358 5357 5356 5355 5354 5353 5351 5349 5348 5347 5347 5346 5346 5346 5346 5346 5346 5347 5347 5348 5349 5350 5351 5352 5353 5355 5357 5360 5363 5367 5372
5481 5478 5476 5473 5470 5467 5464 5461 5458 5456 5452 5449 5446 5443 5440 5437 5433 5430 5427 5424 5422 5419 5417 5414 5412 5409 5406 5403 5401 5398 5395 5391 5388 5386 5385 5384 5383 5381 5379 5377 5375 5372 5371 5369 5368 5367 5367 5366 5365 5364 5363 5362 5360 5357 5355 5353 5352 5351 5349 5348 5347 5345 5343 5342 5341 5340 5339 5339 5339 5339 5338 5338 5339 5339 5340 5341 5342 5343 5344 5345 5346 5347 5350 5352 5356 5360
5478 5475 5472 5470 5467 5463 5460 5457 5454 5451 5448 5445 5441 5438 5435 5432 5428 5425 5422 5419 5416 5412 5410 5407 5405 5402 5400 5397 5395 5392 5389 5385 5382 5381 5379 5378 5377 5375 5373 5371 5369 5367 5366 5364 5363 5362 5361 5360 5359 5358 5357 5356 5355 5352 5350 5348 5347 5345 5344 5342 5341 5339 5337 5336 5335 5333 5332 5332 5332 5332 5331 5331 5331 5332 5332 5333 5334 5335 5336 5337 5338 5339 5341 5343 5345 5348
5475 5472 5469 5467 5464 5461 5457 5453 5450 5447 5443 5440 5437 5433 5430 5427 5423 5420 5417 5413 5410 5407 5404 5401 5398 5395 5393 5391 5389 5387 5384 5380 5378 5375 5374 5372 5371 5370 5368 5365 5363 5362 5361 5359 5358 5357 5356 5355 5353 5352 5352 5351 5349 5347 5346 5344 5342 5340 5338 5337 5335 5333 5331 5329 5328 5327 5326 5325 5325 5324 5323 5323 5323 5324 5324 5325 5326 5327 5328 5329 5330 5331 5332 5334 5336 5338
5472 5469 5466 5463 5461 5457 5454 5450 5446 5443 5440 5436 5432 5429 5425 5422 5418 5415 5412 5408 5405 5402 5398 5395 5392 5389 5386 5384 5382 5380 5378 5376 5373 5371 5368 5367 5365 5364 5363 5361 5359 5357 5357 5355 5353 5352 5352 5351 5349 5348 5347 5346 5344 5343 5341 5340 5338 5336 5334 5332 5330 5328 5326 5323 5322 5321 5319 5318 5317 5317 5316 5316 5316 5316 5317 5317 5318 5319 5320 5321 5322 5323 5324 5326 5327 5330
5469 5466 5463 5460 5457 5454 5451 5447 5443 5439 5436 5432 5428 5424 5421 5417 5414 5410 5407 5403 5400 5397 5393 5390 5386 5383 5380 5377 5375 5374 5372 5370 5368 5366 5364 5362 5360 5359 5358 5357 5355 5353 5352 5351 5350 5348 5347 5347 5345 5344 5343 5342 5340 5339 5337 5335 5333 5332 5329 5327 5325 5323 5321 5318 5317 5315 5314 5312 5311 5310 5309 5308 5308 5308 5308 5309 5310 5310 5312 5312 5313 5315 5316 5317 5319 5321
5466 5463 5460 5457 5453 5450 5447 5443 5439 5436 5432 5428 5424 5421 5417 5413 5409 5406 5402 5398 5395 5392 5388 5385 5382 5378 5375 5372 5370 5368 5367 5365 5363 5361 5359 5357 5356 5355 5354 5353 5352 5350 5349 5348 5347 5345 5344 5342 5341 5340 5339 5337 5336 5335 5333 5331 5329 5327 5325 5323 5322 5319 5317 5314 5312 5310 5308 5307 5305 5304 5302 5302 5301 5301 5301 5301 5302 5302 5303 5304 5305 5306 5307 5309 5311 5313
5463 5460 5457 5453 5450 5447 5443 5440 5436 5432 5428 5424 5420 5416 5412 5409 5405 5401 5397 5393 5390 5386 5383 5380 5376 5373 5370 5367 5365 5363 5362 5360 5358 5357 5355 5354 5352 5351 5351 5350 5348 5347 5346 5344 5343 5342 5341 5339 5337 5336 5335 5333 5332 5331 5329 5327 5325 5322 5321 5319 5317 5315 5313 5310 5307 5305 5303 5301 5300 5298 5297 5296 5295 5294 5294 5294 5294 5295 5296 5297 5297 5298 5299 5301 5302 5304
5460 5457 5453 5450 5447 5443 5439 5436 5432 5428 5424 5420 5416 5412 5408 5404 5400 5396 5392 5387 5384 5380 5377 5374 5371 5368 5365 5362 5361 5359 5358 5356 5355 5353 5352 5350 5349 5348 5347 5346 5345 5344 5343 5342 5340 5339 5337 5336 5334 5332 5331 5330 5328 5327 5326 5324 5321 5319 5316 5314 5312 5310 5309 5306 5303 5300 5297 5296 5294 5292 5291 5290 5289 5288 5287 5287 5288 5288 5289 5290 5290 5291 5292 5292 5294 5296
5457 5454 5450 5447 5443 5439 5436 5432 5428 5424 5420 5416 5412 5408 5404 5400 5396 5392 5387 5383 5379 5375 5372 5369 5367 5364 5361 5358 5357 5355 5354 5353 5351 5350 5349 5347 5347 5346 5344 5343 5342 5341 5340 5339 5337 5336 5334 5333 5331 5329 5328 5326 5325 5323 5321 5319 5317 5314 5312 5308 5306 5304 5303 5301 5298 5295 5292 5290 5288 5287 5285 5283 5282 5282 5282 5282 5282 5282 5282 5283 5284 5284 5285 5285 5286 5288
5454 5451 5447 5443 5440 5436 5432 5428 5424 5420 5415 5411 5407 5403 5399 5395 5391 5387 5383 5379 5375 5371 5368 5365 5363 5361 5358 5356 5353 5352 5350 5349 5348 5347 5346 5345 5344 5343 5342 5341 5339 5338 5337 5336 5335 5333 5332 5331 5329 5327 5325 5323 5321 5319 5317 5314 5312 5310 5307 5303 5300 5297 5295 5293 5291 5289 5286 5283 5281 5280 5278 5277 5276 5276 5276 5276 5276 5276 5277 5277 5277 5278 5278 5279 5280 5281
5451 5447 5444 5440 5436 5432 5428 5424 5420 5416 5412 5407 5403 5398 5394 5389 5386 5382 5378 5374 5371 5367 5364 5362 5360 5357 5355 5353 5351 5350 5348 5347 5346 5345 5344 5343 5342 5341 5339 5338 5337 5336 5334 5333 5332 5331 5329 5328 5326 5324 5322 5319 5317 5314 5312 5309 5307 5304 5301 5298 5294 5291 5288 5286 5284 5282 5279 5277 5275 5273 5272 5271 5270 5270 5270 5271 5271 5271 5271 5271 5271 5272 5272 5272 5273 5274
5447 5444 5440 5437 5433 5429 5425 5421 5417 5412 5407 5403 5398 5394 5389 5385 5381 5377 5373 5370 5367 5364 5361 5359 5357 5355 5353 5351 5349 5348 5346 5345 5343 5342 5342 5341 5340 5338 5337 5336 5335 5333 5332 5331 5330 5328 5327 5324 5322 5320 5318 5316 5313 5310 5307 5304 5302 5299 5296 5293 5289 5286 5282 5280 5277 5275 5272 5270 5269 5267 5266 5264 5264 5264 5265 5265 5265 5265 5265 5265 5265 5266 5266 5267 5267 5268
5445 5441 5437 5434 5430 5426 5422 5418 5413 5409 5404 5399 5394 5389 5385 5380 5376 5372 5369 5366 5363 5361 5358 5356 5355 5353 5351 5349 5348 5346 5345 5343 5342 5341 5340 5338 5337 5337 5335 5334 5333 5332 5330 5328 5327 5325 5323 5321 5319 5317 5314 5312 5309 5307 5304 5301 5297 5295 5292 5289 5286 5282 5278 5275 5272 5269 5267 5265 5263 5262 5260 5259 5259 5259 5259 5259 5259 5260 5259 5260 5260 5260 5260 5260 5261 5262
5442 5438 5435 5431 5427 5423 5419 5415 5410 5406 5401 5395 5390 5385 5381 5377 5372 5369 5366 5363 5361 5358 5356 5354 5352 5351 5349 5348 5347 5345 5344 5342 5341 5340 5339 5337 5336 5335 5334 5332 5331 5330 5328 5326 5324 5322 5320 5317 5315 5312 5310 5307 5305 5303 5301 5298 5295 5292 5289 5286 5283 5280 5276 5272 5269 5266 5263 5261 5259 5257 5256 5255 5254 5253 5253 5253 5254 5254 5254 5254 5254 5254 5254 5254 5255 5256
5439 5436 5432 5429 5425 5421 5417 5412 5407 5403 5397 5392 5387 5382 5377 5373 5370 5366 5363 5361 5358 5356 5354 5352 5351 5349 5347 5346 5345 5344 5343 5342 5340 5339 5338 5337 5335 5334 5332 5331 5329 5328 5326 5324 5322 5319 5317 5314 5312 5308 5306 5304 5302 5300 5298 5296 5293 5290 5287 5284 5281 5278 5274 5271 5268 5265 5262 5259 5257 5255 5253 5252 5250 5249 5248 5248 5248 5248 5249 5249 5249 5248 5248 5249 5249 5250
5437 5433 5430 5426 5422 5418 5414 5410 5405 5400 5395 5389 5384 5379 5374 5370 5367 5364 5361 5359 5357 5355 5353 5351 5349 5348 5346 5345 5344 5343 5342 5341 5340 5338 5337 5336 5335 5333 5332 5330 5328 5326 5324 5322 5320 5317 5315 5312 5309 5306 5303 5301 5299 5297 5296 5294 5291 5288 5285 5282 5279 5276 5273 5270 5267 5264 5261 5258 5255 5253 5251 5249 5247 5246 5245 5244 5243 5243 5243 5243 5243 5243 5242 5242 5243 5243
5434 5431 5427 5424 5420 5416 5412 5407 5402 5397 5392 5387 5382 5377 5372 5368 5365 5362 5359 5357 5355 5353 5351 5350 5348 5347 5345 5344 5343 5342 5341 5340 5339 5337 5337 5335 5334 5332 5331 5329 5327 5325 5323 5321 5318 5316 5313 5311 5308 5305 5302 5299 5297 5296 5294 5292 5289 5287 5284 5281 5278 5275 5272 5269 5266 5263 5260 5257 5255 5252 5250 5247 5246 5244 5242 5241 5239 5239 5238 5238 5238 5237 5237 5236 5237 5237
5432 5428 5425 5422 5418 5414 5409 5405 5400 5395 5390 5385 5380 5375 5371 5367 5363 5361 5358 5356 5354 5352 5350 5349 5347 5346 5345 5343 5342 5341 5340 5339 5338 5337 5336 5334 5333 5331 5330 5328 5326 5323 5321 5319 5317 5314 5312 5310 5307 5304 5300 5297 5295 5293 5292 5290 5287 5285 5282 5280 5277 5273 5270 5267 5265 5262 5259 5256 5253 5251 5248 5246 5244 5242 5240 5238 5237 5235 5234 5234 5233 5232 5232 5231 5231 5231